Terug naar catalogus

STARLINK-30956

ActiefCommunicatieVLEO
NORAD 58481·PAYLOAD·🇺🇸 United States

Gelanceerd Dec 3, 2023 vanaf Cape Canaveral Space Force Station

Loading…

Volgende Passages (komende 24 uur)

TLE

VersSource: CelesTrak SupGP

Epoch: Sep 15, 2026, 02:36 UTC

1 58481C 23186J   26258.10881944 -.00031632  00000+0 -11454-2 0  2585
2 58481  43.0011  51.5372 0001534 266.9617  10.9481 15.27604062    17

Volg STARLINK-30956 in realtime met AllMySat

Download on the App Store